Погода в Новопесчаном

Россия / Новосибирская область     54°50′26″N   76°41′59″E
темп.,
°C
ветер,
м/с
пор.,
м/с
влажн.,
%
обл.,
%
осадки,
мм/ч
давл.,
гПа
погр.,
м
12 апреля, пн
пн1201:00−1юз3396100 0.0 1039159
04:00−1зюз449497 0.0 1037134
07:00−2зюз3496100 0.0 103765
10:00−1зюз479348 0.0 1036193
13:00+1юз589970 0.0 1034177
16:00+2зюз589997 0.0 1032174
19:00+2зюз5899100 0.0 1032134
22:00+2з4694100 0.0 103174
13 апреля, вт
вт1301:00+2сз4799100 1.6 1031107
04:00+2ссз3698100 0.1 103395
07:00+1ссз479875 0.1 1034128
10:00+2ссз47914 0.0 1036139
13:00+4сз47741 0.0 1037278
16:00+5сз58645 0.0 1037395
19:00+5сз58711 0.0 1037214
22:00+2з44865 0.0 103751
14 апреля, ср
ср1401:00+1з449179 0.0 103749
04:00+1з3490100 0.0 103638
07:000зюз448998 0.0 103643
10:00+3зюз588486 0.0 1035144
13:00+6зюз7116871 0.0 1032279
16:00+8зюз81264100 0.0 1030348
19:00+8з71165100 0.0 1027272
22:00+5з587718 0.0 102796
15 апреля, чт
чт1501:00+4з458552 0.0 102661
04:00+4з449078 0.0 102541
07:00+4з44935 0.0 102528
10:00+6зюз459210 0.0 102589
13:00+9зюз56845 0.0 1023239
16:00+11зюз58715 0.1 1021537
19:00+11з597016 0.3 1019380
22:00+8зюз45825 0.0 101845
16 апреля, пт
пт1601:00+7зюз45885 0.0 101769
04:00+6зюз45935 0.0 101652
07:00+5зюз449253 0.0 101640
10:00+7з458339 0.0 101694
13:00+10з466877 0.0 1015328
16:00+11з34575 0.0 1014609
19:00+10зюз126065 0.0 1012363
22:00+9юв33696 0.0 101211